Alexander, West Virginia
Current Conditions -  °F | °C
As of 12:35 PM on Wednesday 26 Nov 2014 (Local Time) from KW22 Reporting Station
Light Snow Light Snow  
Wind Chill: 32°   Ceiling: 100
Heat Index: 32°   Visibility: 0.25mi
Dew Point: 32°   Wind: 0mph
Humidity: 100%   Direction: NA
Pressure: 29.97"   Gusts: NA
Location:  38.8347°N, 80.2578°W
Report Text: KW22 261735Z AUTO 00000KT 1/4SM -SN OVC001 M00/00 A2997 RMK AO2
Loading
Personal Weather Stations






























Interactive Weather Map New forecast layout! Learn more

10-Day Weather Forecast

Advertisements
Track Severe Weather on mobile